CW2597 Weather Reports


time (UTC)temp
C
wind
direction
speed
KPH
gust
KPH
rain 1hr
cm
rain 24hr
cm
rain mn
cm
humidity
%
barometer
mb
20260506001706 11 325 0.0 0.0 0.00 0.41 0.00 86 1007.6
20260506001512 11 350 0.0 0.0 0.00 0.00 0.00 85 1006.6
20260506001205 11 12 0.0 0.0 0.00 0.41 0.00 85 1007.7
20260506000706 11 13 0.0 0.0 0.00 0.41 0.00 85 1007.7
20260506000511 11 13 0.0 0.0 0.00 0.00 0.00 85 1006.6
20260506000206 11 25 0.0 0.0 0.00 0.43 0.00 85 1007.7
20260505235705 11 54 0.0 0.0 0.00 0.43 0.00 85 1007.8
20260505235511 11 66 0.0 0.0 0.00 0.00 0.00 85 1006.7
20260505235205 11 55 0.0 0.0 0.00 0.43 0.00 85 1007.8
20260505234706 11 43 0.0 0.0 0.00 0.43 0.00 85 1007.9
20260505234512 11 13 0.0 0.0 0.00 0.00 0.00 85 1006.8
20260505234205 11 29 0.0 0.0 0.00 0.43 0.00 85 1007.9
20260505233706 11 314 0.0 0.0 0.00 0.46 0.00 85 1007.9
20260505233511 11 13 0.0 0.0 0.00 0.00 0.00 85 1006.9
20260505233205 11 358 0.0 0.0 0.00 0.46 0.00 85 1008.0
20260505232705 11 40 0.0 0.0 0.00 0.46 0.00 85 1008.0
20260505232511 11 252 0.0 0.0 0.00 0.00 0.00 85 1006.9
20260505232206 11 354 0.0 0.0 0.00 0.48 0.00 85 1008.0
20260505231705 11 355 0.0 0.0 0.00 0.48 0.00 85 1008.0
20260505231205 11 29 0.0 0.0 0.00 0.48 0.00 85 1008.0
20260505230706 11 9 0.0 0.0 0.00 0.51 0.00 86 1008.1
20260505230511 11 17 0.0 0.0 0.00 0.00 0.00 86 1007.0
20260505230205 11 328 0.0 0.0 0.00 0.51 0.00 86 1008.1
20260505225706 11 10 0.0 0.0 0.00 0.51 0.00 86 1008.1
20260505225511 11 16 0.0 0.0 0.00 0.00 0.00 86 1007.0
20260505225206 11 52 0.0 0.0 0.00 0.53 0.00 86 1008.2
20260505224705 11 356 0.0 0.0 0.00 0.53 0.00 86 1008.1
20260505224511 11 15 0.0 0.0 0.00 0.00 0.00 86 1007.1
20260505223705 11 13 0.0 0.0 0.00 0.56 0.00 87 1008.2
20260505223511 11 50 0.0 0.0 0.00 0.00 0.00 86 1007.2
20260505223205 11 39 0.0 0.0 0.00 0.58 0.00 87 1008.2
20260505222705 11 31 0.0 0.0 0.00 0.58 0.00 87 1008.2
20260505222205 11 358 0.0 0.0 0.00 0.61 0.00 87 1008.3
20260505221205 11 330 0.0 0.0 0.00 0.61 0.00 88 1008.3
20260505220205 11 36 0.0 0.0 0.00 0.61 0.00 88 1008.3
20260505215705 11 40 0.0 0.0 0.00 0.64 0.61 88 1008.4
20260505215511 11 40 0.0 0.0 0.00 0.61 0.61 88 1007.3
20260505215205 11 41 0.0 1.6 0.00 0.64 0.61 88 1008.5
20260505214705 11 64 0.0 0.0 0.00 0.64 0.61 88 1008.5
20260505214511 11 358 0.0 0.0 0.00 0.61 0.61 88 1007.4
20260505213705 11 39 0.0 0.0 0.00 0.71 0.61 88 1008.5
20260505213205 11 34 0.0 0.0 0.00 0.76 0.61 88 1008.5
20260505212705 11 52 0.0 1.6 0.00 0.79 0.61 89 1008.5
20260505212511 11 54 0.0 1.6 0.00 0.61 0.61 89 1007.5
20260505212206 11 60 0.0 0.0 0.00 0.79 0.61 89 1008.5
20260505211511 11 40 0.0 0.0 0.00 0.61 0.61 89 1007.4
20260505210705 11 43 0.0 0.0 0.00 0.84 0.61 90 1008.5
20260505210511 11 358 0.0 0.0 0.00 0.61 0.61 90 1007.5
20260505205705 11 7 0.0 0.0 0.00 0.84 0.61 90 1008.5
20260505205511 11 7 0.0 0.0 0.00 0.61 0.61 90 1007.4
20260505204511 11 358 0.0 0.0 0.00 0.61 0.61 89 1007.5
20260505204206 11 358 0.0 0.0 0.00 0.84 0.61 89 1008.6
20260505203705 11 3 0.0 0.0 0.00 0.84 0.61 89 1008.6
20260505203511 11 3 0.0 0.0 0.00 0.61 0.61 89 1007.5
20260505203205 11 5 0.0 0.0 0.00 0.86 0.61 89 1008.6
20260505202705 11 13 0.0 0.0 0.00 0.86 0.61 89 1008.7
20260505202511 11 14 0.0 0.0 0.00 0.61 0.61 89 1007.6
20260505202205 11 13 0.0 0.0 0.00 0.86 0.61 89 1008.7
20260505201705 11 10 0.0 0.0 0.00 0.86 0.61 89 1008.7
20260505201512 11 335 0.0 0.0 0.00 0.61 0.61 89 1007.6
20260505201205 11 0 0.0 0.0 0.00 0.86 0.61 89 1008.7
20260505200705 11 357 0.0 0.0 0.00 0.86 0.61 89 1008.7
20260505200511 11 3 0.0 0.0 0.00 0.61 0.61 89 1007.6
20260505200205 11 358 0.0 0.0 0.00 0.86 0.61 89 1008.6
20260505195705 11 355 0.0 0.0 0.00 0.86 0.61 88 1008.6
20260505195205 11 356 0.0 0.0 0.00 0.86 0.61 88 1008.6
20260505194705 11 350 0.0 0.0 0.00 0.89 0.61 88 1008.6
20260505194510 11 350 0.0 0.0 0.00 0.61 0.61 88 1007.6
20260505193705 12 340 0.0 0.0 0.00 0.89 0.61 88 1008.6
20260505193511 12 345 0.0 0.0 0.00 0.61 0.61 88 1007.6
20260505193205 12 303 0.0 0.0 0.00 0.94 0.61 88 1008.7
20260505192205 12 7 0.0 0.0 0.00 0.97 0.61 87 1008.7
20260505191705 12 3 0.0 0.0 0.00 0.99 0.61 87 1008.6
20260505191511 12 4 0.0 0.0 0.00 0.61 0.61 87 1007.5
20260505191205 12 2 0.0 0.0 0.00 1.04 0.61 87 1008.5
20260505190705 12 4 0.0 0.0 0.00 1.09 0.61 87 1008.4
20260505190510 12 356 0.0 0.0 0.00 0.61 0.61 87 1007.4
20260505185705 12 1 0.0 0.0 0.00 1.24 0.61 86 1008.3
20260505185510 12 7 0.0 0.0 0.00 0.61 0.61 86 1007.3
20260505185205 12 6 0.0 0.0 0.00 1.27 0.61 86 1008.3
20260505184705 12 347 0.0 0.0 0.00 1.35 0.61 86 1008.3
20260505184511 12 350 0.0 0.0 0.00 0.61 0.61 86 1007.3
20260505184205 12 352 0.0 0.0 0.00 1.37 0.61 86 1008.3
20260505183705 12 15 0.0 0.0 0.00 1.37 0.61 86 1008.4
20260505183511 12 38 0.0 0.0 0.00 0.61 0.61 86 1007.4
20260505183205 12 16 0.0 0.0 0.00 1.37 0.61 86 1008.4
20260505182705 12 36 0.0 0.0 0.00 1.37 0.61 86 1008.4
20260505182510 12 24 0.0 0.0 0.00 0.61 0.61 86 1007.4
20260505182205 12 25 0.0 0.0 0.00 1.42 0.61 86 1008.4
20260505181705 12 356 0.0 0.0 0.00 1.42 0.61 86 1008.4
20260505181510 12 356 0.0 0.0 0.00 0.61 0.61 86 1007.3
20260505181205 12 76 0.0 0.0 0.00 1.42 0.61 86 1008.3
20260505180705 12 21 0.0 0.0 0.00 1.42 0.61 86 1008.3
20260505180510 12 33 0.0 0.0 0.00 0.61 0.61 86 1007.3
20260505175705 12 75 0.0 0.0 0.00 1.42 0.61 86 1008.3
20260505175510 12 76 0.0 0.0 0.00 0.61 0.61 86 1007.3
20260505175205 12 59 0.0 0.0 0.00 1.42 0.61 86 1008.4
20260505174704 12 91 0.0 0.0 0.00 1.42 0.61 86 1008.4
20260505174510 12 91 0.0 0.0 0.00 0.61 0.61 85 1007.4
20260505174204 12 42 0.0 0.0 0.00 1.42 0.61 86 1008.4
20260505173704 12 25 0.0 0.0 0.00 1.42 0.61 85 1008.4
20260505173204 12 24 0.0 0.0 0.00 1.42 0.61 85 1008.4
20260505172705 12 337 0.0 0.0 0.00 1.42 0.61 85 1008.4
20260505172205 12 48 0.0 0.0 0.00 1.42 0.61 85 1008.4
20260505171510 12 54 0.0 0.0 0.00 0.61 0.61 84 1007.4
20260505171205 12 350 0.0 0.0 0.00 1.42 0.61 85 1008.5
20260505170705 12 124 0.0 0.0 0.00 1.42 0.61 84 1008.6
20260505170510 12 135 0.0 0.0 0.00 0.61 0.61 84 1007.5
20260505170204 12 18 0.0 0.0 0.00 1.42 0.61 84 1008.7
20260505165705 12 59 0.0 0.0 0.00 1.42 0.61 84 1008.7
20260505165205 12 23 0.0 0.0 0.00 1.42 0.61 84 1008.7
20260505164705 12 93 0.0 0.0 0.00 1.42 0.61 84 1008.7
20260505164510 12 40 0.0 0.0 0.00 0.61 0.61 84 1007.6
20260505164205 12 64 0.0 0.0 0.00 1.42 0.61 84 1008.7
20260505163704 12 29 0.0 0.0 0.00 1.42 0.61 84 1008.7
20260505163510 12 25 0.0 0.0 0.00 0.61 0.61 84 1007.6
20260505163205 12 349 0.0 0.0 0.00 1.42 0.61 84 1008.7
20260505162511 12 350 0.0 0.0 0.00 0.61 0.61 84 1007.6
20260505162205 12 21 0.0 0.0 0.00 1.42 0.61 84 1008.7
20260505161510 12 323 0.0 0.0 0.00 0.61 0.61 84 1007.7
20260505161205 12 335 0.0 0.0 0.00 1.42 0.61 84 1008.7
20260505160705 12 345 0.0 0.0 0.00 1.42 0.61 85 1008.7
20260505160205 12 5 0.0 0.0 0.00 1.42 0.61 85 1008.7
20260505153205 12 16 0.0 0.0 0.00 1.42 0.61 86 1009.0
20260505152705 12 21 0.0 0.0 0.00 1.42 0.61 86 1009.1
20260505152510 12 345 0.0 0.0 0.00 0.61 0.61 86 1008.0
20260505152204 12 12 0.0 0.0 0.00 1.42 0.61 86 1009.1
20260505151705 12 352 0.0 0.0 0.00 1.42 0.61 86 1009.2
20260505151205 12 356 0.0 0.0 0.00 1.42 0.61 86 1009.2
20260505150705 12 354 0.0 0.0 0.00 1.42 0.61 86 1009.3
20260505150510 12 25 0.0 0.0 0.00 0.61 0.61 87 1008.3
20260505150205 12 350 0.0 0.0 0.00 1.42 0.61 87 1009.3
20260505140510 11 9 0.0 0.0 0.00 0.61 0.61 89 1008.6
20260505140205 11 340 0.0 0.0 0.00 1.45 0.61 90 1009.7
20260505130204 10 271 0.0 0.0 0.00 1.45 0.61 91 1010.0
20260505124704 10 292 0.0 0.0 0.00 1.45 0.61 90 1010.1
20260505124510 10 14 0.0 0.0 0.00 0.61 0.61 90 1009.0
20260505124204 10 331 0.0 0.0 0.00 1.45 0.61 91 1010.1
20260505123705 10 358 0.0 0.0 0.00 1.45 0.61 91 1010.1
20260505123510 10 23 0.0 0.0 0.00 0.61 0.61 91 1009.0
20260505123204 10 340 0.0 0.0 0.00 1.45 0.61 91 1010.1
20260505122705 10 28 0.0 0.0 0.00 1.45 0.61 90 1010.1
20260505122205 10 6 0.0 0.0 0.00 1.45 0.61 90 1010.1
20260505121704 10 358 0.0 0.0 0.00 1.45 0.61 90 1010.2
20260505121510 10 345 0.0 0.0 0.00 0.61 0.61 90 1009.1
20260505121204 10 350 0.0 0.0 0.00 1.45 0.61 90 1010.2
20260505120705 10 26 0.0 0.0 0.00 1.45 0.61 89 1010.2
20260505120510 10 231 0.0 0.0 0.00 0.61 0.61 89 1009.1
20260505120204 10 341 0.0 0.0 0.00 1.45 0.61 89 1010.3
20260505115704 10 252 0.0 0.0 0.00 1.45 0.61 90 1010.3
20260505115510 10 359 0.0 0.0 0.00 0.61 0.61 89 1009.3
20260505115204 10 55 0.0 0.0 0.00 1.45 0.61 89 1010.3
20260505114705 10 357 0.0 0.0 0.00 1.45 0.61 89 1010.3
20260505114204 10 358 0.0 0.0 0.00 1.45 0.61 88 1010.3
20260505113704 10 296 0.0 0.0 0.00 1.45 0.61 88 1010.4
20260505113510 10 20 0.0 0.0 0.00 0.61 0.61 88 1009.4
20260505113204 10 21 0.0 0.0 0.00 1.45 0.61 88 1010.3
20260505112704 10 14 0.0 0.0 0.00 1.45 0.61 88 1010.3
20260505112510 10 340 0.0 0.0 0.00 0.61 0.61 88 1009.3
20260505112205 10 355 0.0 0.0 0.00 1.45 0.61 87 1010.4
20260505111510 10 358 0.0 0.0 0.00 0.61 0.61 87 1009.4
20260505111205 10 15 0.0 0.0 0.00 1.45 0.61 87 1010.4
20260505110704 10 42 0.0 0.0 0.00 1.45 0.61 87 1010.5
20260505102204 10 0 0.0 0.0 0.00 1.60 0.61 85 1010.7
20260505101704 10 354 0.0 0.0 0.00 1.60 0.61 85 1010.7
20260505101510 10 340 0.0 0.0 0.00 0.61 0.61 86 1009.7
20260505101204 10 357 0.0 0.0 0.00 1.60 0.61 86 1010.7
20260505100704 10 336 0.0 0.0 0.00 1.60 0.61 86 1010.7
20260505100204 10 15 0.0 0.0 0.00 1.60 0.61 87 1010.6
20260505095512 10 358 0.0 0.0 0.00 0.61 0.61 87 1009.6
20260505094512 9 294 0.0 0.0 0.00 0.61 0.61 88 1009.7
20260505093704 9 16 0.0 0.0 0.00 1.60 0.61 87 1010.8
20260505093512 9 10 0.0 0.0 0.00 0.61 0.61 87 1009.7
20260505093204 9 359 0.0 0.0 0.00 1.60 0.61 87 1010.8
20260505092704 9 357 0.0 0.0 0.00 1.60 0.61 87 1010.7
20260505092512 9 24 0.0 0.0 0.00 0.61 0.61 87 1009.7
20260505092204 9 336 0.0 0.0 0.00 1.60 0.61 88 1010.7
20260505091704 9 13 0.0 0.0 0.00 1.60 0.61 88 1010.8
20260505091515 9 331 0.0 0.0 0.00 0.61 0.61 88 1009.7
20260505091204 9 351 0.0 0.0 0.00 1.60 0.61 88 1010.8
20260505090704 9 9 0.0 0.0 0.00 1.60 0.61 88 1010.8
20260505090204 9 319 0.0 0.0 0.03 1.60 0.61 88 1010.9
20260505085704 9 4 0.0 0.0 0.03 1.60 0.61 88 1010.9
20260505085512 9 7 0.0 0.0 0.03 0.61 0.61 88 1009.9
20260505085204 8 358 0.0 0.0 0.03 1.60 0.61 88 1010.9
20260505084204 8 7 0.0 0.0 0.03 1.60 0.61 89 1010.9
20260505083704 8 359 0.0 0.0 0.03 1.60 0.61 89 1011.1
20260505083512 8 258 0.0 0.0 0.03 0.61 0.61 89 1010.0
20260505083204 8 297 0.0 0.0 0.03 1.60 0.61 90 1011.1
20260505082704 8 350 0.0 0.0 0.03 1.60 0.61 90 1011.0
20260505082512 8 15 0.0 0.0 0.03 0.61 0.61 90 1009.9
20260505082204 8 0 0.0 0.0 0.03 1.60 0.61 90 1011.0
20260505081704 8 8 0.0 0.0 0.03 1.60 0.61 90 1011.0
20260505081512 8 345 0.0 0.0 0.03 0.61 0.61 90 1009.9
20260505081204 8 5 0.0 0.0 0.03 1.60 0.61 91 1011.0
20260505080704 8 44 0.0 0.0 0.03 1.60 0.61 90 1010.9
20260505080512 8 67 0.0 0.0 0.03 0.61 0.61 90 1009.8
20260505080205 8 1 0.0 0.0 0.00 1.57 0.61 90 1010.9
20260505075704 8 314 0.0 0.0 0.00 1.57 0.61 90 1010.8
20260505075204 8 296 0.0 0.0 0.00 1.57 0.61 91 1010.8
20260505074704 8 349 0.0 0.0 0.00 1.57 0.61 91 1010.9
20260505074512 8 345 0.0 0.0 0.00 0.61 0.61 91 1009.8
20260505074204 8 326 0.0 0.0 0.00 1.57 0.61 91 1011.0
20260505073512 8 308 0.0 0.0 0.00 0.61 0.61 92 1010.0
20260505072512 8 308 0.0 0.0 0.00 0.61 0.61 91 1010.1
20260505072204 8 329 0.0 0.0 0.00 1.57 0.61 91 1011.2
20260505071704 8 25 0.0 0.0 0.00 1.57 0.61 91 1011.1
20260505071204 8 345 0.0 1.6 0.00 1.57 0.61 91 1011.1
20260505070704 8 26 0.0 3.2 0.00 1.57 0.61 92 1011.0
20260505070512 8 65 0.0 3.2 0.00 0.61 0.61 92 1010.0
20260505070203 8 345 0.0 1.6 0.00 1.57 0.61 92 1011.0
20260505065704 8 35 0.0 0.0 0.00 1.57 0.61 92 1010.9
20260505065511 8 17 0.0 0.0 0.00 0.61 0.61 92 1009.8
20260505065204 8 356 0.0 0.0 0.00 1.57 0.61 92 1010.8
20260505064704 8 358 0.0 0.0 0.00 1.57 0.61 93 1010.8
20260505064512 8 355 0.0 0.0 0.00 0.61 0.61 93 1009.8
20260505064204 8 352 0.0 0.0 0.00 1.57 0.61 92 1010.9
20260505063704 8 7 0.0 0.0 0.03 1.57 0.61 93 1010.9
20260505063511 8 230 0.0 0.0 0.03 0.61 0.61 93 1009.8
20260505063204 8 302 0.0 0.0 0.03 1.57 0.61 93 1010.9
20260505062204 8 352 0.0 0.0 0.03 1.57 0.61 93 1011.0
20260505061703 8 336 0.0 0.0 0.03 1.57 0.61 93 1011.0
20260505061511 8 48 0.0 0.0 0.03 0.61 0.61 93 1009.8
20260505061204 8 350 0.0 0.0 0.03 1.57 0.61 92 1010.9
20260505060704 8 5 0.0 0.0 0.05 1.57 0.61 93 1010.8
20260505060512 8 278 0.0 0.0 0.05 0.61 0.61 93 1009.8
20260505055704 8 9 0.0 0.0 0.05 1.57 0.61 93 1010.9
20260505055512 8 316 0.0 0.0 0.05 0.61 0.61 92 1009.9
20260505055204 8 9 0.0 0.0 0.05 1.57 0.61 92 1010.8
20260505054512 8 282 0.0 0.0 0.08 0.61 0.61 93 1009.9
20260505054204 8 9 0.0 0.0 0.08 1.57 0.61 92 1010.9
20260505053704 8 4 0.0 0.0 0.05 1.55 0.58 92 1010.9
20260505053511 8 5 0.0 0.0 0.08 0.58 0.58 92 1009.7
20260505053205 8 6 0.0 0.0 0.08 1.55 0.58 93 1010.9
20260505052704 8 22 0.0 0.0 0.08 1.55 0.58 93 1010.9
20260505052511 8 350 0.0 0.0 0.08 0.58 0.58 93 1009.7
20260505052204 8 357 0.0 0.0 0.08 1.55 0.58 92 1010.9
20260505051704 8 9 0.0 0.0 0.10 1.55 0.58 92 1010.8
20260505051511 8 9 0.0 0.0 0.10 0.58 0.58 92 1009.7
20260505050706 8 347 0.0 0.0 0.08 1.55 0.56 92 1010.9
20260505050512 8 5 0.0 0.0 0.08 0.56 0.56 93 1009.7
20260505050205 8 349 0.0 0.0 0.10 1.55 0.56 92 1010.8
20260505041706 8 3 0.0 0.0 0.05 1.45 0.48 93 1010.8
20260505041511 8 359 0.0 0.0 0.08 0.48 0.48 92 1009.8
20260505041206 8 17 0.0 0.0 0.08 1.45 0.48 92 1010.8
20260505040705 8 350 0.0 0.0 0.08 1.45 0.48 92 1010.8
20260505040512 8 350 0.0 0.0 0.10 0.48 0.48 92 1009.8
20260505040205 8 354 0.0 0.0 0.08 1.45 0.46 92 1010.8
20260505035705 8 350 0.0 0.0 0.10 1.45 0.46 93 1010.8
20260505035511 8 318 0.0 0.0 0.10 0.46 0.46 92 1009.7
20260505035205 8 1 0.0 0.0 0.10 1.45 0.46 93 1010.7
20260505034511 8 354 0.0 0.0 0.13 0.46 0.46 93 1009.8
20260505034206 8 345 0.0 0.0 0.13 1.45 0.46 93 1010.8
20260505033706 8 332 0.0 0.0 0.15 1.45 0.46 93 1010.8
20260505033512 8 350 0.0 0.0 0.15 0.46 0.46 93 1009.8
20260505033206 8 0 0.0 0.0 0.15 1.42 0.43 93 1010.8
20260505032511 8 7 0.0 0.0 0.15 0.43 0.43 93 1009.8
20260505031705 8 330 0.0 0.0 0.15 1.40 0.43 92 1011.0
20260505031511 8 336 0.0 0.0 0.13 0.41 0.41 92 1009.9
20260505031206 8 310 0.0 0.0 0.13 1.37 0.41 92 1011.0
20260505030705 8 337 0.0 0.0 0.13 1.37 0.41 92 1011.0
20260505030512 8 320 0.0 0.0 0.10 0.38 0.38 92 1010.0
20260505025511 8 350 0.0 0.0 0.10 0.36 0.36 92 1009.9
20260505025205 8 344 0.0 0.0 0.10 1.35 0.36 92 1010.9
20260505024705 9 357 0.0 0.0 0.08 1.32 0.33 93 1011.0
20260505024511 9 15 0.0 0.0 0.08 0.33 0.33 93 1009.9
20260505024206 9 338 0.0 0.0 0.08 1.32 0.33 93 1011.0
20260505023705 9 348 0.0 0.0 0.05 1.30 0.33 93 1011.0
20260505023512 9 28 0.0 0.0 0.08 0.33 0.33 93 1009.9
20260505023205 9 358 0.0 0.0 0.05 1.27 0.30 93 1010.9
20260505022706 9 352 0.0 0.0 0.05 1.27 0.30 92 1011.0
20260505022511 9 30 0.0 0.0 0.05 0.30 0.30 92 1009.9
20260505022206 9 319 0.0 1.6 0.05 1.27 0.30 92 1010.9
20260505021705 9 320 0.0 0.0 0.05 1.27 0.28 92 1011.0
20260505021511 9 46 0.0 0.0 0.05 0.28 0.28 92 1009.9
20260505021205 9 355 0.0 0.0 0.05 1.27 0.28 93 1010.9
20260505020706 9 4 0.0 0.0 0.05 1.27 0.28 93 1011.0
20260505020512 9 19 0.0 0.0 0.05 0.28 0.28 93 1009.9
20260505020206 9 11 0.0 0.0 0.05 1.27 0.28 93 1011.0
20260505015705 9 339 0.0 0.0 0.05 1.24 0.25 93 1011.0
20260505015511 9 335 0.0 0.0 0.05 0.25 0.25 93 1009.9
20260505015205 9 19 0.0 0.0 0.05 1.24 0.25 93 1011.0
20260505014706 9 9 0.0 0.0 0.05 1.24 0.25 92 1011.1
20260505013511 10 340 0.0 0.0 0.03 0.23 0.23 92 1010.1
20260505013205 10 340 0.0 0.0 0.03 1.22 0.23 92 1011.1
20260505012705 10 316 0.0 0.0 0.03 1.22 0.23 92 1011.1
20260505012512 10 301 0.0 0.0 0.03 0.23 0.23 93 1010.1
20260505011709 10 281 0.0 0.0 0.03 1.22 0.23 92 1011.2
20260505011511 10 291 0.0 0.0 0.03 0.23 0.23 92 1010.2
20260505010706 10 4 0.0 0.0 0.03 1.22 0.23 92 1011.2
20260505010206 10 355 0.0 0.0 0.05 1.22 0.23 92 1011.2
20260505005705 10 351 0.0 0.0 0.03 1.19 0.23 92 1011.3
20260505005206 10 307 0.0 0.0 0.03 1.19 0.23 92 1011.3
20260505004705 10 0 0.0 0.0 0.05 1.19 0.23 92 1011.3
20260505004511 10 354 0.0 0.0 0.05 0.23 0.23 92 1010.3
20260505004205 10 330 0.0 0.0 0.05 1.19 0.23 92 1011.3
20260505003705 10 8 0.0 0.0 0.05 1.19 0.23 92 1011.3
20260505003512 10 9 0.0 0.0 0.05 0.23 0.23 92 1010.3
20260505003205 10 25 0.0 0.0 0.05 1.19 0.23 92 1011.4
20260505002706 10 1 0.0 0.0 0.05 1.19 0.23 92 1011.4
20260505002511 10 269 0.0 0.0 0.08 0.23 0.23 92 1010.4
20260505002205 10 299 0.0 0.0 0.08 1.19 0.23 92 1011.4